| time (UTC) | temp F | wind direction | speed knots | gust knots | rain 1hr in | rain 24hr in | rain mn in | humidity % | barometer mb |
| 20260504130804 | 47 | 311 | 1.7 | 3.5 | 0.00 | 0.07 | 0.00 | 64 | 1011.6 |
| 20260504130604 | 47 | 314 | 0.9 | 6.1 | 0.00 | 0.07 | 0.00 | 65 | 1011.5 |
| 20260504130404 | 47 | 302 | 1.7 | 6.1 | 0.00 | 0.07 | 0.00 | 64 | 1011.5 |
| 20260504130205 | 47 | 292 | 2.6 | 6.1 | 0.00 | 0.07 | 0.00 | 64 | 1011.4 |
| 20260504120225 | 48 | 319 | 2.6 | 4.3 | 0.00 | 0.07 | 0.00 | 60 | 1010.6 |
| 20260504110604 | 52 | 323 | 7.8 | 16.5 | 0.00 | 0.07 | 0.00 | 55 | 1008.8 |
| 20260504110404 | 52 | 328 | 7.0 | 16.5 | 0.00 | 0.07 | 0.00 | 54 | 1008.7 |
| 20260504110204 | 52 | 341 | 12.2 | 16.5 | 0.00 | 0.07 | 0.00 | 54 | 1008.7 |
| 20260504100603 | 53 | 309 | 0.9 | 3.5 | 0.00 | 0.07 | 0.00 | 50 | 1007.3 |
| 20260504100404 | 53 | 326 | 1.7 | 4.3 | 0.00 | 0.07 | 0.00 | 50 | 1007.3 |
| 20260504100204 | 54 | 10 | 2.6 | 6.1 | 0.00 | 0.07 | 0.00 | 49 | 1007.3 |
| 20260504082004 | 58 | 242 | 10.4 | 18.2 | 0.00 | 0.07 | 0.00 | 42 | 1006.8 |
| 20260504081804 | 58 | 242 | 10.4 | 16.5 | 0.00 | 0.07 | 0.00 | 42 | 1006.9 |
| 20260504081604 | 58 | 243 | 11.3 | 16.5 | 0.00 | 0.07 | 0.00 | 43 | 1006.9 |
| 20260504081403 | 58 | 245 | 11.3 | 16.5 | 0.00 | 0.07 | 0.00 | 43 | 1006.9 |
| 20260504081204 | 58 | 241 | 9.6 | 16.5 | 0.00 | 0.07 | 0.00 | 43 | 1006.9 |
| 20260504081003 | 58 | 253 | 10.4 | 16.5 | 0.00 | 0.07 | 0.00 | 43 | 1006.9 |
| 20260504080804 | 58 | 254 | 9.6 | 17.4 | 0.00 | 0.07 | 0.00 | 43 | 1006.9 |
| 20260504080604 | 58 | 257 | 8.7 | 18.2 | 0.00 | 0.07 | 0.00 | 43 | 1006.9 |
| 20260504080404 | 58 | 257 | 8.7 | 18.2 | 0.00 | 0.07 | 0.00 | 43 | 1006.9 |
| 20260504080204 | 58 | 253 | 8.7 | 18.2 | 0.00 | 0.07 | 0.00 | 43 | 1006.9 |
| 20260504070404 | 59 | 240 | 10.4 | 19.1 | 0.00 | 0.07 | 0.00 | 45 | 1007.3 |
| 20260504070204 | 59 | 238 | 13.9 | 21.7 | 0.00 | 0.07 | 0.00 | 44 | 1007.2 |
| 20260504060203 | 58 | 248 | 7.0 | 11.3 | 0.00 | 0.07 | 0.00 | 49 | 1007.7 |
| 20260504050604 | 58 | 248 | 8.7 | 14.8 | 0.00 | 0.07 | 0.07 | 49 | 1008.4 |
| 20260504050404 | 58 | 247 | 9.6 | 13.9 | 0.00 | 0.07 | 0.07 | 49 | 1008.5 |
| 20260504050204 | 58 | 247 | 9.6 | 16.5 | 0.00 | 0.07 | 0.07 | 50 | 1008.5 |
| 20260504050007 | 58 | 254 | 8.7 | 16.5 | 0.00 | 0.07 | 0.07 | 50 | 1008.5 |
| 20260504045804 | 58 | 249 | 8.7 | 16.5 | 0.00 | 0.07 | 0.07 | 50 | 1008.5 |
| 20260504045604 | 58 | 252 | 9.6 | 16.5 | 0.00 | 0.07 | 0.07 | 49 | 1008.5 |
| 20260504045425 | 58 | 248 | 10.4 | 16.5 | 0.00 | 0.07 | 0.07 | 50 | 1008.5 |
| 20260504045225 | 58 | 245 | 9.6 | 16.5 | 0.00 | 0.07 | 0.07 | 50 | 1008.5 |
| 20260504045025 | 58 | 241 | 9.6 | 17.4 | 0.00 | 0.07 | 0.07 | 50 | 1008.5 |
| 20260504044804 | 58 | 239 | 11.3 | 17.4 | 0.00 | 0.07 | 0.07 | 50 | 1008.4 |
| 20260504044604 | 58 | 247 | 9.6 | 17.4 | 0.00 | 0.07 | 0.07 | 50 | 1008.5 |
| 20260504044404 | 58 | 257 | 10.4 | 17.4 | 0.00 | 0.07 | 0.07 | 50 | 1008.5 |
| 20260504044204 | 58 | 242 | 11.3 | 17.4 | 0.00 | 0.07 | 0.07 | 50 | 1008.5 |
| 20260504044004 | 58 | 244 | 9.6 | 14.8 | 0.00 | 0.07 | 0.07 | 50 | 1008.5 |
| 20260504043804 | 58 | 245 | 9.6 | 14.8 | 0.00 | 0.07 | 0.07 | 50 | 1008.5 |
| 20260504043603 | 58 | 250 | 8.7 | 16.5 | 0.00 | 0.07 | 0.07 | 50 | 1008.6 |
| 20260504043403 | 58 | 249 | 7.0 | 16.5 | 0.00 | 0.07 | 0.07 | 50 | 1008.6 |
| 20260504043204 | 58 | 255 | 8.7 | 16.5 | 0.00 | 0.07 | 0.07 | 50 | 1008.5 |
| 20260504043004 | 58 | 262 | 9.6 | 16.5 | 0.00 | 0.07 | 0.07 | 50 | 1008.6 |
| 20260504042804 | 58 | 249 | 9.6 | 16.5 | 0.00 | 0.07 | 0.07 | 50 | 1008.5 |
| 20260504042604 | 58 | 250 | 9.6 | 15.6 | 0.00 | 0.07 | 0.07 | 50 | 1008.5 |
| 20260504042425 | 59 | 259 | 8.7 | 15.6 | 0.00 | 0.07 | 0.07 | 50 | 1008.5 |
| 20260504042224 | 59 | 255 | 8.7 | 15.6 | 0.00 | 0.07 | 0.07 | 50 | 1008.5 |
| 20260504042024 | 59 | 249 | 10.4 | 15.6 | 0.00 | 0.07 | 0.07 | 50 | 1008.4 |
| 20260504041804 | 59 | 241 | 10.4 | 15.6 | 0.00 | 0.07 | 0.07 | 49 | 1008.5 |
| 20260504041604 | 59 | 260 | 8.7 | 15.6 | 0.00 | 0.07 | 0.07 | 49 | 1008.5 |
| 20260504041404 | 59 | 254 | 8.7 | 16.5 | 0.00 | 0.07 | 0.07 | 49 | 1008.5 |
| 20260504041204 | 59 | 253 | 8.7 | 17.4 | 0.00 | 0.07 | 0.07 | 49 | 1008.5 |
| 20260504041003 | 59 | 258 | 8.7 | 17.4 | 0.00 | 0.07 | 0.07 | 49 | 1008.4 |
| 20260504040804 | 60 | 258 | 9.6 | 18.2 | 0.00 | 0.07 | 0.07 | 49 | 1008.4 |
| 20260504040604 | 60 | 250 | 9.6 | 18.2 | 0.00 | 0.07 | 0.07 | 48 | 1008.5 |
| 20260504040404 | 60 | 245 | 10.4 | 18.2 | 0.00 | 0.07 | 0.07 | 48 | 1008.4 |
| 20260504040204 | 60 | 250 | 12.2 | 18.2 | 0.00 | 0.07 | 0.07 | 48 | 1008.4 |
| 20260504040004 | 60 | 242 | 12.2 | 18.2 | 0.00 | 0.07 | 0.07 | 48 | 1008.5 |
| 20260504035803 | 60 | 243 | 11.3 | 18.2 | 0.00 | 0.07 | 0.07 | 49 | 1008.4 |
| 20260504035604 | 60 | 248 | 10.4 | 18.2 | 0.00 | 0.07 | 0.07 | 49 | 1008.4 |
| 20260504035425 | 60 | 240 | 10.4 | 18.2 | 0.00 | 0.07 | 0.07 | 49 | 1008.5 |
| 20260504035225 | 60 | 244 | 9.6 | 18.2 | 0.00 | 0.07 | 0.07 | 49 | 1008.5 |
| 20260504035025 | 59 | 246 | 9.6 | 13.9 | 0.00 | 0.07 | 0.07 | 49 | 1008.5 |
| 20260504034825 | 59 | 237 | 10.4 | 13.9 | 0.00 | 0.07 | 0.07 | 49 | 1008.5 |
| 20260504034625 | 59 | 241 | 8.7 | 13.0 | 0.00 | 0.07 | 0.07 | 50 | 1008.5 |
| 20260504034425 | 58 | 249 | 7.0 | 13.0 | 0.00 | 0.07 | 0.07 | 51 | 1008.5 |
| 20260504034203 | 58 | 248 | 7.8 | 12.2 | 0.00 | 0.07 | 0.07 | 52 | 1008.6 |
| 20260504034004 | 58 | 241 | 7.0 | 12.2 | 0.00 | 0.07 | 0.07 | 53 | 1008.6 |
| 20260504033804 | 58 | 262 | 6.1 | 11.3 | 0.00 | 0.07 | 0.07 | 53 | 1008.6 |
| 20260504033604 | 58 | 260 | 6.1 | 13.0 | 0.00 | 0.07 | 0.07 | 53 | 1008.6 |
| 20260504033405 | 58 | 262 | 4.3 | 13.0 | 0.00 | 0.07 | 0.07 | 54 | 1008.5 |
| 20260504033204 | 58 | 259 | 7.0 | 13.0 | 0.00 | 0.07 | 0.07 | 54 | 1008.6 |
| 20260504033025 | 58 | 253 | 7.0 | 13.0 | 0.00 | 0.07 | 0.07 | 53 | 1008.6 |
| 20260504032825 | 58 | 257 | 7.0 | 13.0 | 0.00 | 0.07 | 0.07 | 53 | 1008.7 |
| 20260504032625 | 58 | 261 | 7.0 | 13.0 | 0.00 | 0.07 | 0.07 | 54 | 1008.6 |
| 20260504032403 | 58 | 249 | 7.8 | 13.0 | 0.00 | 0.07 | 0.07 | 54 | 1008.6 |
| 20260504032203 | 58 | 241 | 7.0 | 13.0 | 0.00 | 0.07 | 0.07 | 55 | 1008.6 |
| 20260504032004 | 57 | 249 | 7.0 | 13.0 | 0.00 | 0.07 | 0.07 | 55 | 1008.5 |
| 20260504031804 | 57 | 245 | 8.7 | 13.0 | 0.00 | 0.07 | 0.07 | 57 | 1008.6 |
| 20260504031604 | 57 | 246 | 8.7 | 12.2 | 0.00 | 0.07 | 0.07 | 57 | 1008.6 |
| 20260504031404 | 56 | 244 | 7.8 | 11.3 | 0.00 | 0.07 | 0.07 | 58 | 1008.6 |
| 20260504031224 | 56 | 241 | 7.0 | 11.3 | 0.00 | 0.07 | 0.07 | 60 | 1008.6 |
| 20260504031025 | 56 | 246 | 7.0 | 11.3 | 0.00 | 0.07 | 0.07 | 61 | 1008.6 |
| 20260504030825 | 55 | 252 | 7.0 | 9.6 | 0.00 | 0.07 | 0.07 | 61 | 1008.6 |
| 20260504030603 | 54 | 252 | 6.1 | 9.6 | 0.00 | 0.07 | 0.07 | 64 | 1008.6 |
| 20260504030404 | 53 | 246 | 5.2 | 9.6 | 0.00 | 0.07 | 0.07 | 65 | 1008.5 |
| 20260504030203 | 53 | 241 | 4.3 | 8.7 | 0.00 | 0.07 | 0.07 | 67 | 1008.5 |
| 20260504030004 | 52 | 251 | 1.7 | 3.5 | 0.00 | 0.07 | 0.07 | 71 | 1008.5 |
| 20260504025803 | 52 | 220 | 1.7 | 2.6 | 0.00 | 0.07 | 0.07 | 70 | 1008.6 |
| 20260504025607 | 52 | 215 | 1.7 | 2.6 | 0.00 | 0.07 | 0.07 | 70 | 1008.6 |
| 20260504025403 | 53 | 216 | 1.7 | 2.6 | 0.00 | 0.07 | 0.07 | 70 | 1008.5 |
| 20260504025203 | 53 | 216 | 0.9 | 2.6 | 0.00 | 0.07 | 0.07 | 69 | 1008.5 |
| 20260504025004 | 53 | 216 | 0.0 | 1.7 | 0.00 | 0.07 | 0.07 | 68 | 1008.5 |
| 20260504024804 | 53 | 216 | 0.0 | 1.7 | 0.00 | 0.07 | 0.07 | 67 | 1008.5 |
| 20260504024604 | 53 | 0 | 0.0 | 1.7 | 0.00 | 0.07 | 0.07 | 67 | 1008.5 |
| 20260504024404 | 53 | 216 | 0.0 | 2.6 | 0.00 | 0.07 | 0.07 | 67 | 1008.5 |
| 20260504024204 | 54 | 216 | 0.9 | 2.6 | 0.00 | 0.07 | 0.07 | 66 | 1008.4 |
| 20260504024004 | 54 | 216 | 0.9 | 2.6 | 0.00 | 0.07 | 0.07 | 66 | 1008.4 |
| 20260504023804 | 54 | 216 | 0.9 | 3.5 | 0.00 | 0.07 | 0.07 | 65 | 1008.4 |
| 20260504023604 | 54 | 216 | 1.7 | 3.5 | 0.00 | 0.07 | 0.07 | 64 | 1008.4 |
| 20260504023403 | 55 | 213 | 1.7 | 3.5 | 0.00 | 0.07 | 0.07 | 64 | 1008.4 |
| 20260504023204 | 55 | 207 | 1.7 | 3.5 | 0.00 | 0.07 | 0.07 | 64 | 1008.4 |
| 20260504023004 | 55 | 248 | 2.6 | 3.5 | 0.00 | 0.07 | 0.07 | 64 | 1008.4 |
| 20260504022804 | 55 | 281 | 0.9 | 2.6 | 0.00 | 0.07 | 0.07 | 66 | 1008.4 |
| 20260504022603 | 55 | 284 | 0.0 | 3.5 | 0.00 | 0.07 | 0.07 | 66 | 1008.4 |
| 20260504022404 | 55 | 284 | 0.0 | 4.3 | 0.00 | 0.07 | 0.07 | 66 | 1008.4 |
| 20260504022204 | 55 | 284 | 0.9 | 4.3 | 0.00 | 0.07 | 0.07 | 66 | 1008.4 |
| 20260504022003 | 55 | 282 | 1.7 | 4.3 | 0.00 | 0.07 | 0.07 | 66 | 1008.3 |
| 20260504021807 | 55 | 289 | 1.7 | 4.3 | 0.00 | 0.07 | 0.07 | 66 | 1008.3 |
| 20260504021603 | 55 | 331 | 2.6 | 4.3 | 0.00 | 0.07 | 0.07 | 67 | 1008.3 |
| 20260504021403 | 55 | 319 | 1.7 | 3.5 | 0.00 | 0.07 | 0.07 | 67 | 1008.2 |
| 20260504021204 | 55 | 237 | 1.7 | 3.5 | 0.00 | 0.07 | 0.07 | 67 | 1008.3 |
| 20260504021004 | 55 | 239 | 0.9 | 2.6 | 0.00 | 0.07 | 0.07 | 69 | 1008.2 |
| 20260504020804 | 55 | 252 | 0.9 | 1.7 | 0.00 | 0.07 | 0.07 | 69 | 1008.3 |
| 20260504020624 | 55 | 252 | 0.9 | 1.7 | 0.00 | 0.07 | 0.07 | 69 | 1008.3 |
| 20260504020425 | 55 | 252 | 0.0 | 1.7 | 0.00 | 0.07 | 0.07 | 69 | 1008.3 |
| 20260504020225 | 56 | 251 | 0.0 | 2.6 | 0.00 | 0.07 | 0.07 | 69 | 1008.4 |
| 20260504020025 | 56 | 252 | 0.0 | 3.5 | 0.00 | 0.07 | 0.07 | 68 | 1008.4 |
| 20260504015825 | 56 | 250 | 0.9 | 3.5 | 0.00 | 0.07 | 0.07 | 68 | 1008.4 |
| 20260504015624 | 56 | 228 | 1.7 | 3.5 | 0.00 | 0.07 | 0.07 | 68 | 1008.4 |
| 20260504015408 | 56 | 226 | 1.7 | 3.5 | 0.00 | 0.07 | 0.07 | 67 | 1008.4 |
| 20260504015205 | 56 | 220 | 2.6 | 3.5 | 0.00 | 0.07 | 0.07 | 67 | 1008.4 |
| 20260504015004 | 57 | 220 | 1.7 | 3.5 | 0.00 | 0.07 | 0.07 | 67 | 1008.5 |
| 20260504014803 | 57 | 234 | 1.7 | 3.5 | 0.00 | 0.07 | 0.07 | 66 | 1008.5 |
| 20260504014604 | 57 | 242 | 1.7 | 3.5 | 0.00 | 0.07 | 0.07 | 66 | 1008.5 |
| 20260504014404 | 58 | 257 | 1.7 | 3.5 | 0.00 | 0.07 | 0.07 | 66 | 1008.6 |
| 20260504014203 | 58 | 260 | 1.7 | 3.5 | 0.00 | 0.07 | 0.07 | 65 | 1008.6 |
| 20260504014004 | 58 | 263 | 1.7 | 3.5 | 0.00 | 0.07 | 0.07 | 65 | 1008.7 |
| 20260504013803 | 59 | 249 | 2.6 | 4.3 | 0.00 | 0.07 | 0.07 | 64 | 1008.7 |
| 20260504013604 | 59 | 203 | 2.6 | 4.3 | 0.00 | 0.07 | 0.07 | 63 | 1008.7 |
| 20260504013403 | 60 | 199 | 1.7 | 4.3 | 0.00 | 0.07 | 0.07 | 62 | 1008.8 |
| 20260504013204 | 60 | 176 | 1.7 | 4.3 | 0.00 | 0.07 | 0.07 | 61 | 1008.8 |
| 20260504013004 | 60 | 135 | 2.6 | 4.3 | 0.00 | 0.07 | 0.07 | 61 | 1008.8 |
| 20260504012804 | 60 | 153 | 2.6 | 4.3 | 0.00 | 0.07 | 0.07 | 60 | 1008.8 |
| 20260504012603 | 60 | 167 | 1.7 | 3.5 | 0.00 | 0.07 | 0.07 | 60 | 1008.8 |
| 20260504012403 | 60 | 137 | 2.6 | 4.3 | 0.00 | 0.07 | 0.07 | 60 | 1008.8 |
| 20260504012204 | 61 | 140 | 2.6 | 4.3 | 0.00 | 0.07 | 0.07 | 60 | 1008.8 |
| 20260504012004 | 61 | 141 | 2.6 | 4.3 | 0.00 | 0.07 | 0.07 | 59 | 1008.8 |
| 20260504011803 | 61 | 141 | 1.7 | 4.3 | 0.00 | 0.07 | 0.07 | 60 | 1008.9 |
| 20260504011603 | 61 | 141 | 2.6 | 4.3 | 0.00 | 0.07 | 0.07 | 59 | 1008.9 |
| 20260504011404 | 61 | 154 | 1.7 | 3.5 | 0.00 | 0.07 | 0.07 | 59 | 1008.9 |
| 20260504011204 | 61 | 140 | 2.6 | 4.3 | 0.00 | 0.07 | 0.07 | 60 | 1009.0 |
| 20260504011007 | 62 | 149 | 1.7 | 6.1 | 0.00 | 0.07 | 0.07 | 60 | 1009.0 |
| 20260504010804 | 62 | 194 | 0.9 | 6.1 | 0.00 | 0.07 | 0.07 | 60 | 1009.0 |
| 20260504010603 | 62 | 193 | 1.7 | 6.1 | 0.00 | 0.07 | 0.07 | 60 | 1009.0 |
| 20260504010404 | 62 | 76 | 2.6 | 6.1 | 0.00 | 0.07 | 0.07 | 59 | 1009.1 |
| 20260504010204 | 62 | 94 | 2.6 | 6.1 | 0.00 | 0.07 | 0.07 | 59 | 1009.1 |
| 20260504010004 | 62 | 143 | 2.6 | 5.2 | 0.00 | 0.07 | 0.07 | 59 | 1009.2 |
| 20260504005804 | 62 | 148 | 1.7 | 3.5 | 0.00 | 0.07 | 0.07 | 59 | 1009.2 |
| 20260504005604 | 62 | 96 | 0.9 | 3.5 | 0.00 | 0.07 | 0.07 | 58 | 1009.2 |
| 20260504005404 | 62 | 116 | 1.7 | 4.3 | 0.00 | 0.07 | 0.07 | 58 | 1009.3 |
| 20260504005203 | 62 | 140 | 1.7 | 7.8 | 0.00 | 0.07 | 0.07 | 57 | 1009.2 |
| 20260504005004 | 63 | 192 | 0.9 | 7.8 | 0.00 | 0.07 | 0.07 | 57 | 1009.3 |
| 20260504004804 | 63 | 197 | 1.7 | 7.8 | 0.00 | 0.07 | 0.07 | 56 | 1009.3 |
| 20260504004603 | 63 | 200 | 2.6 | 7.8 | 0.00 | 0.07 | 0.07 | 56 | 1009.3 |
| 20260504004404 | 63 | 195 | 3.5 | 7.8 | 0.00 | 0.07 | 0.07 | 56 | 1009.3 |
| 20260504004204 | 64 | 195 | 3.5 | 7.8 | 0.00 | 0.07 | 0.07 | 55 | 1009.4 |
| 20260504004004 | 64 | 190 | 3.5 | 7.8 | 0.00 | 0.07 | 0.07 | 54 | 1009.4 |
| 20260504003804 | 64 | 193 | 3.5 | 7.8 | 0.00 | 0.07 | 0.07 | 54 | 1009.4 |
| 20260504003604 | 65 | 186 | 3.5 | 7.8 | 0.00 | 0.07 | 0.07 | 54 | 1009.4 |
| 20260504003404 | 65 | 195 | 2.6 | 7.8 | 0.00 | 0.07 | 0.07 | 54 | 1009.5 |
| 20260504003204 | 65 | 186 | 3.5 | 7.8 | 0.00 | 0.07 | 0.07 | 54 | 1009.5 |
| 20260504003004 | 65 | 184 | 2.6 | 7.8 | 0.00 | 0.07 | 0.07 | 54 | 1009.5 |
| 20260504002804 | 65 | 193 | 2.6 | 7.8 | 0.00 | 0.07 | 0.07 | 54 | 1009.6 |
| 20260504002604 | 65 | 180 | 3.5 | 7.8 | 0.00 | 0.07 | 0.07 | 54 | 1009.6 |
| 20260504002404 | 65 | 194 | 1.7 | 6.1 | 0.00 | 0.07 | 0.07 | 55 | 1009.6 |
| 20260504002204 | 65 | 196 | 3.5 | 7.8 | 0.00 | 0.07 | 0.07 | 55 | 1009.6 |
| 20260504002003 | 65 | 192 | 4.3 | 7.8 | 0.00 | 0.07 | 0.07 | 54 | 1009.7 |
| 20260504001804 | 65 | 187 | 2.6 | 7.8 | 0.00 | 0.07 | 0.07 | 55 | 1009.8 |
| 20260504001604 | 65 | 191 | 3.5 | 7.8 | 0.00 | 0.07 | 0.07 | 55 | 1009.8 |
| 20260504001404 | 64 | 202 | 3.5 | 7.8 | 0.00 | 0.07 | 0.07 | 55 | 1009.8 |
| 20260504001203 | 64 | 194 | 3.5 | 6.1 | 0.00 | 0.07 | 0.07 | 55 | 1009.9 |
| 20260504001004 | 64 | 215 | 2.6 | 6.1 | 0.00 | 0.07 | 0.07 | 56 | 1009.9 |
| 20260504000804 | 64 | 193 | 3.5 | 7.8 | 0.00 | 0.07 | 0.07 | 55 | 1009.9 |
| 20260504000604 | 64 | 204 | 3.5 | 7.8 | 0.00 | 0.07 | 0.07 | 55 | 1010.0 |
| 20260504000404 | 64 | 212 | 3.5 | 7.8 | 0.00 | 0.07 | 0.07 | 56 | 1009.9 |
| 20260504000204 | 64 | 194 | 3.5 | 8.7 | 0.00 | 0.07 | 0.07 | 56 | 1010.1 |
| 20260504000007 | 64 | 184 | 4.3 | 8.7 | 0.00 | 0.07 | 0.07 | 55 | 1010.1 |
| 20260503235803 | 64 | 215 | 4.3 | 8.7 | 0.00 | 0.07 | 0.07 | 56 | 1010.1 |
| 20260503235604 | 64 | 207 | 2.6 | 8.7 | 0.00 | 0.07 | 0.07 | 56 | 1010.2 |
| 20260503235404 | 64 | 215 | 4.3 | 9.6 | 0.00 | 0.07 | 0.07 | 57 | 1010.2 |
| 20260503235204 | 64 | 209 | 3.5 | 9.6 | 0.00 | 0.07 | 0.07 | 56 | 1010.2 |
| 20260503235004 | 64 | 198 | 3.5 | 9.6 | 0.00 | 0.07 | 0.07 | 57 | 1010.2 |
| 20260503234825 | 64 | 209 | 4.3 | 9.6 | 0.00 | 0.07 | 0.07 | 58 | 1010.2 |
| 20260503234625 | 64 | 215 | 6.1 | 9.6 | 0.00 | 0.07 | 0.07 | 56 | 1010.3 |
| 20260503234425 | 64 | 198 | 4.3 | 11.3 | 0.00 | 0.07 | 0.07 | 58 | 1010.3 |
| 20260503234204 | 64 | 210 | 4.3 | 13.0 | 0.00 | 0.07 | 0.07 | 59 | 1010.3 |
| 20260503234004 | 64 | 212 | 5.2 | 13.0 | 0.00 | 0.07 | 0.07 | 59 | 1010.4 |
| 20260503233804 | 64 | 206 | 5.2 | 13.0 | 0.00 | 0.07 | 0.07 | 59 | 1010.4 |
| 20260503233603 | 64 | 209 | 5.2 | 13.0 | 0.00 | 0.07 | 0.07 | 59 | 1010.4 |
| 20260503233404 | 64 | 207 | 5.2 | 13.0 | 0.00 | 0.07 | 0.07 | 59 | 1010.4 |
| 20260503233203 | 64 | 226 | 5.2 | 13.0 | 0.00 | 0.07 | 0.07 | 56 | 1010.4 |
| 20260503233003 | 63 | 240 | 5.2 | 13.9 | 0.00 | 0.07 | 0.07 | 56 | 1010.5 |
| 20260503232803 | 63 | 234 | 5.2 | 13.9 | 0.00 | 0.07 | 0.07 | 57 | 1010.6 |
| 20260503232604 | 63 | 234 | 5.2 | 13.9 | 0.00 | 0.07 | 0.07 | 57 | 1010.5 |
| 20260503232404 | 63 | 213 | 5.2 | 13.9 | 0.00 | 0.07 | 0.07 | 58 | 1010.6 |
| 20260503232204 | 63 | 231 | 7.0 | 13.9 | 0.00 | 0.07 | 0.07 | 58 | 1010.6 |
| 20260503232004 | 63 | 206 | 6.1 | 13.0 | 0.00 | 0.07 | 0.07 | 58 | 1010.7 |
| 20260503231804 | 63 | 240 | 5.2 | 10.4 | 0.00 | 0.07 | 0.07 | 58 | 1010.8 |
| 20260503231603 | 63 | 235 | 7.0 | 10.4 | 0.00 | 0.07 | 0.07 | 58 | 1010.8 |
| 20260503231404 | 62 | 225 | 5.2 | 10.4 | 0.00 | 0.07 | 0.07 | 59 | 1010.8 |
| 20260503231204 | 62 | 218 | 5.2 | 10.4 | 0.00 | 0.07 | 0.07 | 60 | 1010.8 |
| 20260503231004 | 62 | 193 | 3.5 | 11.3 | 0.00 | 0.07 | 0.07 | 61 | 1010.8 |
| 20260503230804 | 62 | 223 | 2.6 | 11.3 | 0.00 | 0.07 | 0.07 | 62 | 1010.8 |
| 20260503230604 | 62 | 219 | 5.2 | 14.8 | 0.00 | 0.07 | 0.07 | 60 | 1010.9 |
| 20260503230404 | 61 | 209 | 5.2 | 14.8 | 0.00 | 0.07 | 0.07 | 61 | 1011.1 |
| 20260503230203 | 61 | 216 | 4.3 | 14.8 | 0.00 | 0.07 | 0.07 | 63 | 1011.1 |
| 20260503230004 | 61 | 202 | 5.2 | 14.8 | 0.00 | 0.07 | 0.07 | 63 | 1011.1 |
| 20260503225804 | 60 | 220 | 5.2 | 14.8 | 0.00 | 0.07 | 0.07 | 63 | 1011.1 |
| 20260503225604 | 60 | 211 | 7.0 | 14.8 | 0.00 | 0.07 | 0.07 | 64 | 1011.2 |
| 20260503225404 | 60 | 219 | 5.2 | 14.8 | 0.00 | 0.07 | 0.07 | 64 | 1011.2 |
| 20260503225204 | 60 | 218 | 6.1 | 15.6 | 0.00 | 0.07 | 0.07 | 64 | 1011.4 |
| 20260503225004 | 60 | 215 | 6.1 | 15.6 | 0.00 | 0.07 | 0.07 | 65 | 1011.3 |
| 20260503224825 | 60 | 236 | 7.8 | 15.6 | 0.00 | 0.07 | 0.07 | 63 | 1011.5 |
| 20260503224625 | 59 | 224 | 7.0 | 15.6 | 0.00 | 0.07 | 0.07 | 66 | 1011.6 |
| 20260503224425 | 59 | 234 | 7.0 | 15.6 | 0.00 | 0.07 | 0.07 | 66 | 1011.7 |
| 20260503224204 | 59 | 235 | 7.0 | 13.9 | 0.00 | 0.07 | 0.07 | 67 | 1011.7 |
| 20260503224004 | 59 | 232 | 8.7 | 14.8 | 0.00 | 0.07 | 0.07 | 67 | 1011.8 |
| 20260503223803 | 59 | 233 | 7.0 | 14.8 | 0.00 | 0.07 | 0.07 | 69 | 1011.9 |
| 20260503223604 | 58 | 229 | 7.0 | 14.8 | 0.00 | 0.07 | 0.07 | 69 | 1011.9 |
| 20260503223404 | 58 | 221 | 4.3 | 14.8 | 0.00 | 0.07 | 0.07 | 71 | 1011.9 |
| 20260503223204 | 58 | 207 | 7.8 | 14.8 | 0.00 | 0.07 | 0.07 | 70 | 1012.0 |
| 20260503223004 | 58 | 211 | 7.0 | 13.9 | 0.00 | 0.07 | 0.07 | 72 | 1012.1 |
| 20260503222804 | 57 | 202 | 6.1 | 13.0 | 0.00 | 0.07 | 0.07 | 71 | 1012.1 |
| 20260503222603 | 57 | 239 | 5.2 | 13.9 | 0.00 | 0.07 | 0.07 | 71 | 1012.2 |
| 20260503222404 | 57 | 241 | 7.8 | 21.7 | 0.00 | 0.07 | 0.07 | 71 | 1012.2 |
| 20260503222204 | 57 | 227 | 5.2 | 21.7 | 0.00 | 0.07 | 0.07 | 72 | 1012.4 |
| 20260503222004 | 56 | 231 | 7.8 | 21.7 | 0.00 | 0.07 | 0.07 | 71 | 1012.4 |
| 20260503221803 | 56 | 228 | 8.7 | 21.7 | 0.00 | 0.07 | 0.07 | 70 | 1012.4 |
| 20260503221604 | 56 | 233 | 9.6 | 21.7 | 0.00 | 0.07 | 0.07 | 70 | 1012.4 |
| 20260503221404 | 57 | 222 | 10.4 | 18.2 | 0.00 | 0.07 | 0.07 | 69 | 1012.4 |
| 20260503221204 | 57 | 223 | 9.6 | 17.4 | 0.00 | 0.07 | 0.07 | 69 | 1012.5 |
| 20260503221004 | 57 | 224 | 9.6 | 15.6 | 0.00 | 0.07 | 0.07 | 69 | 1012.7 |
| 20260503220804 | 57 | 237 | 7.8 | 12.2 | 0.00 | 0.07 | 0.07 | 70 | 1012.8 |
| 20260503220604 | 57 | 239 | 6.1 | 9.6 | 0.00 | 0.07 | 0.07 | 70 | 1012.8 |
| 20260503220404 | 57 | 242 | 5.2 | 9.6 | 0.00 | 0.07 | 0.07 | 71 | 1012.8 |
| 20260503220204 | 57 | 233 | 4.3 | 9.6 | 0.00 | 0.07 | 0.07 | 71 | 1012.9 |
| 20260503220003 | 57 | 236 | 5.2 | 9.6 | 0.00 | 0.07 | 0.07 | 72 | 1013.0 |
| 20260503215804 | 57 | 238 | 4.3 | 9.6 | 0.00 | 0.07 | 0.07 | 71 | 1013.0 |
| 20260503215603 | 56 | 245 | 5.2 | 9.6 | 0.00 | 0.07 | 0.07 | 71 | 1013.0 |
| 20260503215424 | 56 | 247 | 5.2 | 9.6 | 0.00 | 0.07 | 0.07 | 72 | 1013.0 |
| 20260503215225 | 56 | 242 | 4.3 | 7.8 | 0.00 | 0.07 | 0.07 | 72 | 1013.1 |
| 20260503215028 | 56 | 248 | 4.3 | 6.1 | 0.00 | 0.07 | 0.07 | 73 | 1013.0 |
| 20260503214804 | 56 | 247 | 3.5 | 6.1 | 0.00 | 0.07 | 0.07 | 74 | 1013.1 |
| 20260503214604 | 56 | 244 | 1.7 | 7.8 | 0.01 | 0.07 | 0.07 | 75 | 1013.0 |
| 20260503214404 | 56 | 245 | 1.7 | 7.8 | 0.01 | 0.07 | 0.07 | 76 | 1013.1 |
| 20260503214204 | 56 | 241 | 2.6 | 7.8 | 0.01 | 0.07 | 0.07 | 76 | 1013.1 |
| 20260503214003 | 56 | 242 | 3.5 | 7.8 | 0.02 | 0.07 | 0.07 | 77 | 1013.1 |
| 20260503213804 | 56 | 242 | 2.6 | 7.8 | 0.03 | 0.07 | 0.07 | 78 | 1013.1 |
| 20260503213625 | 56 | 212 | 2.6 | 7.8 | 0.03 | 0.07 | 0.07 | 78 | 1013.1 |
| 20260503213424 | 56 | 215 | 4.3 | 7.8 | 0.04 | 0.07 | 0.07 | 78 | 1013.2 |
| 20260503213225 | 56 | 209 | 3.5 | 8.7 | 0.05 | 0.07 | 0.07 | 79 | 1013.2 |
| 20260503213004 | 55 | 221 | 3.5 | 8.7 | 0.06 | 0.07 | 0.07 | 81 | 1013.3 |
| 20260503212804 | 55 | 214 | 3.5 | 8.7 | 0.07 | 0.07 | 0.07 | 82 | 1013.3 |
| 20260503212603 | 55 | 208 | 3.5 | 8.7 | 0.07 | 0.07 | 0.07 | 83 | 1013.3 |
| 20260503212403 | 55 | 202 | 4.3 | 8.7 | 0.07 | 0.07 | 0.07 | 84 | 1013.3 |
| 20260503212204 | 54 | 214 | 5.2 | 8.7 | 0.07 | 0.07 | 0.07 | 85 | 1013.4 |
| 20260503212007 | 54 | 212 | 4.3 | 5.2 | 0.07 | 0.07 | 0.07 | 85 | 1013.4 |
| 20260503211803 | 54 | 217 | 3.5 | 5.2 | 0.07 | 0.07 | 0.07 | 86 | 1013.4 |
| 20260503211603 | 54 | 215 | 3.5 | 6.1 | 0.07 | 0.07 | 0.07 | 86 | 1013.4 |
| 20260503211404 | 54 | 193 | 2.6 | 6.1 | 0.07 | 0.07 | 0.07 | 87 | 1013.4 |
| 20260503211203 | 54 | 182 | 2.6 | 6.1 | 0.07 | 0.07 | 0.07 | 86 | 1013.3 |
| 20260503211004 | 54 | 151 | 3.5 | 6.1 | 0.07 | 0.07 | 0.07 | 87 | 1013.4 |
| 20260503210804 | 54 | 139 | 3.5 | 6.1 | 0.07 | 0.07 | 0.07 | 86 | 1013.3 |
| 20260503210625 | 53 | 145 | 2.6 | 4.3 | 0.07 | 0.07 | 0.07 | 85 | 1013.6 |
| 20260503210428 | 53 | 186 | 1.7 | 3.5 | 0.07 | 0.07 | 0.07 | 84 | 1013.9 |
| 20260503210225 | 53 | 251 | 1.7 | 3.5 | 0.07 | 0.07 | 0.07 | 84 | 1014.0 |
| 20260503210003 | 53 | 244 | 1.7 | 2.6 | 0.07 | 0.07 | 0.07 | 82 | 1014.1 |
| 20260503205804 | 53 | 232 | 1.7 | 3.5 | 0.07 | 0.07 | 0.07 | 81 | 1014.1 |
| 20260503205603 | 54 | 217 | 1.7 | 4.3 | 0.07 | 0.07 | 0.07 | 81 | 1014.1 |
| 20260503205403 | 54 | 206 | 0.9 | 4.3 | 0.07 | 0.07 | 0.07 | 79 | 1014.1 |
| 20260503205204 | 54 | 206 | 1.7 | 10.4 | 0.07 | 0.07 | 0.07 | 78 | 1014.2 |
| 20260503205004 | 54 | 207 | 2.6 | 10.4 | 0.07 | 0.07 | 0.07 | 77 | 1014.1 |
| 20260503204803 | 55 | 224 | 1.7 | 10.4 | 0.07 | 0.07 | 0.07 | 75 | 1014.1 |
| 20260503204603 | 55 | 286 | 0.9 | 10.4 | 0.06 | 0.06 | 0.06 | 72 | 1014.2 |
| 20260503204404 | 56 | 32 | 1.7 | 10.4 | 0.06 | 0.06 | 0.06 | 71 | 1014.2 |
| 20260503204203 | 56 | 4 | 1.7 | 13.0 | 0.06 | 0.06 | 0.06 | 69 | 1014.0 |
| 20260503204004 | 56 | 333 | 1.7 | 16.5 | 0.05 | 0.05 | 0.05 | 68 | 1014.1 |
| 20260503203804 | 57 | 328 | 1.7 | 16.5 | 0.04 | 0.04 | 0.04 | 67 | 1014.3 |
| 20260503203604 | 58 | 277 | 3.5 | 16.5 | 0.04 | 0.04 | 0.04 | 65 | 1014.4 |
| 20260503203404 | 59 | 293 | 7.0 | 16.5 | 0.03 | 0.03 | 0.03 | 62 | 1014.5 |
| 20260503203207 | 60 | 331 | 10.4 | 16.5 | 0.02 | 0.02 | 0.02 | 61 | 1014.6 |
| 20260503203004 | 60 | 328 | 6.1 | 12.2 | 0.01 | 0.01 | 0.01 | 61 | 1014.5 |
| 20260503202804 | 60 | 293 | 3.5 | 6.1 | 0.00 | 0.00 | 0.00 | 61 | 1014.2 |
| 20260503202604 | 61 | 286 | 1.7 | 7.8 | 0.00 | 0.00 | 0.00 | 57 | 1014.0 |
| 20260503202404 | 61 | 132 | 0.9 | 9.6 | 0.00 | 0.00 | 0.00 | 55 | 1013.6 |
| 20260503202204 | 61 | 131 | 2.6 | 9.6 | 0.00 | 0.00 | 0.00 | 53 | 1013.4 |
| 20260503202004 | 61 | 112 | 3.5 | 9.6 | 0.00 | 0.00 | 0.00 | 52 | 1013.4 |
| 20260503201803 | 62 | 112 | 5.2 | 9.6 | 0.00 | 0.00 | 0.00 | 51 | 1013.3 |
| 20260503201603 | 62 | 114 | 6.1 | 9.6 | 0.00 | 0.00 | 0.00 | 51 | 1013.3 |
| 20260503201403 | 62 | 121 | 6.1 | 9.6 | 0.00 | 0.00 | 0.00 | 51 | 1013.4 |
| 20260503201203 | 63 | 107 | 5.2 | 11.3 | 0.00 | 0.00 | 0.00 | 49 | 1013.3 |
| 20260503201004 | 63 | 122 | 6.1 | 13.9 | 0.00 | 0.00 | 0.00 | 49 | 1013.3 |
| 20260503200804 | 63 | 137 | 5.2 | 13.9 | 0.00 | 0.00 | 0.00 | 48 | 1013.3 |
| 20260503200603 | 64 | 147 | 5.2 | 13.9 | 0.00 | 0.00 | 0.00 | 47 | 1013.4 |
| 20260503200403 | 65 | 123 | 7.0 | 13.9 | 0.00 | 0.00 | 0.00 | 46 | 1013.4 |
| 20260503200204 | 65 | 125 | 7.8 | 13.9 | 0.00 | 0.00 | 0.00 | 46 | 1013.4 |
| 20260503200004 | 66 | 122 | 7.8 | 13.0 | 0.00 | 0.00 | 0.00 | 47 | 1013.4 |
| 20260503195804 | 65 | 137 | 7.0 | 12.2 | 0.00 | 0.00 | 0.00 | 51 | 1013.4 |
| 20260503195604 | 65 | 155 | 6.1 | 10.4 | 0.00 | 0.00 | 0.00 | 48 | 1013.6 |
| 20260503195403 | 64 | 145 | 6.1 | 9.6 | 0.00 | 0.00 | 0.00 | 53 | 1013.6 |
| 20260503195203 | 63 | 138 | 6.1 | 9.6 | 0.00 | 0.00 | 0.00 | 55 | 1013.6 |
| 20260503195004 | 62 | 138 | 6.1 | 9.6 | 0.00 | 0.00 | 0.00 | 56 | 1013.7 |
| 20260503194803 | 62 | 171 | 3.5 | 7.8 | 0.00 | 0.00 | 0.00 | 54 | 1013.7 |
| 20260503194603 | 62 | 162 | 3.5 | 7.8 | 0.00 | 0.00 | 0.00 | 53 | 1013.8 |
| 20260503194407 | 62 | 150 | 3.5 | 7.8 | 0.00 | 0.00 | 0.00 | 55 | 1013.8 |
| 20260503194203 | 62 | 171 | 3.5 | 7.8 | 0.00 | 0.00 | 0.00 | 53 | 1013.8 |
| 20260503194004 | 62 | 157 | 3.5 | 7.8 | 0.00 | 0.00 | 0.00 | 53 | 1013.8 |
| 20260503193804 | 62 | 169 | 2.6 | 7.8 | 0.00 | 0.00 | 0.00 | 53 | 1013.8 |
| 20260503193603 | 62 | 148 | 3.5 | 7.8 | 0.00 | 0.00 | 0.00 | 53 | 1013.8 |
| 20260503193404 | 62 | 147 | 1.7 | 6.1 | 0.00 | 0.00 | 0.00 | 53 | 1013.8 |
| 20260503193204 | 62 | 146 | 3.5 | 6.1 | 0.00 | 0.00 | 0.00 | 53 | 1013.9 |
| 20260503193025 | 62 | 141 | 3.5 | 4.3 | 0.00 | 0.00 | 0.00 | 54 | 1013.9 |
| 20260503192824 | 62 | 187 | 1.7 | 4.3 | 0.00 | 0.00 | 0.00 | 54 | 1014.0 |
| 20260503192625 | 62 | 181 | 2.6 | 5.2 | 0.00 | 0.00 | 0.00 | 53 | 1014.0 |
| 20260503192403 | 62 | 122 | 2.6 | 5.2 | 0.00 | 0.00 | 0.00 | 54 | 1014.0 |
| 20260503192204 | 62 | 108 | 0.9 | 5.2 | 0.00 | 0.00 | 0.00 | 54 | 1014.2 |
| 20260503192003 | 62 | 104 | 2.6 | 5.2 | 0.00 | 0.00 | 0.00 | 54 | 1014.2 |
| 20260503191803 | 62 | 101 | 2.6 | 5.2 | 0.00 | 0.00 | 0.00 | 59 | 1014.3 |
| 20260503191603 | 62 | 101 | 1.7 | 8.7 | 0.00 | 0.00 | 0.00 | 56 | 1014.2 |
| 20260503191403 | 62 | 54 | 1.7 | 8.7 | 0.00 | 0.00 | 0.00 | 57 | 1014.2 |
| 20260503191225 | 62 | 62 | 2.6 | 8.7 | 0.00 | 0.00 | 0.00 | 55 | 1014.2 |
| 20260503191025 | 62 | 57 | 4.3 | 8.7 | 0.00 | 0.00 | 0.00 | 54 | 1014.3 |
| 20260503190824 | 62 | 52 | 5.2 | 8.7 | 0.00 | 0.00 | 0.00 | 54 | 1014.3 |
| 20260503190604 | 62 | 53 | 4.3 | 8.7 | 0.00 | 0.00 | 0.00 | 54 | 1014.3 |
| 20260503190404 | 63 | 50 | 4.3 | 9.6 | 0.00 | 0.00 | 0.00 | 52 | 1014.4 |
| 20260503190204 | 63 | 54 | 4.3 | 9.6 | 0.00 | 0.00 | 0.00 | 50 | 1014.4 |
| 20260503190004 | 63 | 58 | 4.3 | 9.6 | 0.00 | 0.00 | 0.00 | 50 | 1014.4 |
| 20260503185803 | 63 | 73 | 4.3 | 9.6 | 0.00 | 0.00 | 0.00 | 52 | 1014.3 |
| 20260503185603 | 63 | 53 | 5.2 | 9.6 | 0.00 | 0.00 | 0.00 | 54 | 1014.4 |
| 20260503185403 | 63 | 84 | 4.3 | 8.7 | 0.00 | 0.00 | 0.00 | 56 | 1014.4 |
| 20260503185204 | 62 | 56 | 4.3 | 8.7 | 0.00 | 0.00 | 0.00 | 52 | 1014.4 |
| 20260503185004 | 62 | 75 | 4.3 | 8.7 | 0.00 | 0.00 | 0.00 | 55 | 1014.4 |
| 20260503184824 | 62 | 68 | 6.1 | 8.7 | 0.00 | 0.00 | 0.00 | 55 | 1014.3 |
| 20260503184625 | 62 | 77 | 7.0 | 8.7 | 0.00 | 0.00 | 0.00 | 58 | 1014.3 |
| 20260503184425 | 62 | 71 | 6.1 | 8.7 | 0.00 | 0.00 | 0.00 | 56 | 1014.4 |
| 20260503184204 | 62 | 63 | 4.3 | 8.7 | 0.00 | 0.00 | 0.00 | 54 | 1014.5 |
| 20260503184004 | 62 | 35 | 3.5 | 8.7 | 0.00 | 0.00 | 0.00 | 52 | 1014.6 |
| 20260503183804 | 62 | 41 | 4.3 | 11.3 | 0.00 | 0.00 | 0.00 | 56 | 1014.7 |
| 20260503183604 | 62 | 18 | 4.3 | 11.3 | 0.00 | 0.00 | 0.00 | 54 | 1014.8 |
| 20260503183404 | 63 | 360 | 3.5 | 11.3 | 0.00 | 0.00 | 0.00 | 55 | 1014.9 |
| 20260503183203 | 62 | 13 | 5.2 | 11.3 | 0.00 | 0.00 | 0.00 | 54 | 1015.0 |
| 20260503183004 | 62 | 353 | 6.1 | 11.3 | 0.00 | 0.00 | 0.00 | 56 | 1015.0 |
| 20260503182803 | 62 | 338 | 6.1 | 10.4 | 0.00 | 0.00 | 0.00 | 55 | 1015.0 |
| 20260503182603 | 62 | 4 | 3.5 | 9.6 | 0.00 | 0.00 | 0.00 | 53 | 1015.1 |
| 20260503182403 | 62 | 344 | 4.3 | 9.6 | 0.00 | 0.00 | 0.00 | 53 | 1015.1 |
| 20260503182203 | 62 | 309 | 4.3 | 9.6 | 0.00 | 0.00 | 0.00 | 50 | 1015.1 |
| 20260503182005 | 62 | 4 | 5.2 | 8.7 | 0.00 | 0.00 | 0.00 | 53 | 1015.1 |
| 20260503181803 | 63 | 39 | 3.5 | 8.7 | 0.00 | 0.00 | 0.00 | 51 | 1015.0 |
| 20260503181604 | 63 | 96 | 4.3 | 8.7 | 0.00 | 0.00 | 0.00 | 50 | 1015.0 |
| 20260503181404 | 63 | 207 | 3.5 | 8.7 | 0.00 | 0.00 | 0.00 | 52 | 1015.0 |
| 20260503181203 | 64 | 287 | 3.5 | 8.7 | 0.00 | 0.00 | 0.00 | 50 | 1015.1 |
| 20260503181004 | 64 | 313 | 3.5 | 8.7 | 0.00 | 0.00 | 0.00 | 47 | 1015.1 |
| 20260503180804 | 64 | 352 | 4.3 | 10.4 | 0.00 | 0.00 | 0.00 | 46 | 1015.0 |
| 20260503180603 | 64 | 317 | 1.7 | 10.4 | 0.00 | 0.00 | 0.00 | 43 | 1015.0 |
| 20260503180404 | 64 | 51 | 0.9 | 10.4 | 0.00 | 0.00 | 0.00 | 44 | 1015.0 |
| 20260503180203 | 64 | 341 | 0.9 | 10.4 | 0.00 | 0.00 | 0.00 | 42 | 1015.1 |
| 20260503180004 | 65 | 14 | 2.6 | 10.4 | 0.00 | 0.00 | 0.00 | 42 | 1015.2 |
| 20260503175804 | 65 | 11 | 5.2 | 9.6 | 0.00 | 0.00 | 0.00 | 42 | 1015.2 |
| 20260503175604 | 65 | 354 | 4.3 | 11.3 | 0.00 | 0.00 | 0.00 | 42 | 1015.2 |
| 20260503175403 | 66 | 12 | 6.1 | 11.3 | 0.00 | 0.00 | 0.00 | 42 | 1015.2 |
| 20260503175204 | 66 | 23 | 5.2 | 11.3 | 0.00 | 0.00 | 0.00 | 43 | 1015.2 |
| 20260503175004 | 66 | 6 | 4.3 | 12.2 | 0.00 | 0.00 | 0.00 | 43 | 1015.2 |
| 20260503174804 | 66 | 340 | 7.0 | 12.2 | 0.00 | 0.00 | 0.00 | 42 | 1015.2 |
| 20260503174603 | 66 | 357 | 7.0 | 14.8 | 0.00 | 0.00 | 0.00 | 42 | 1015.1 |
| 20260503174404 | 66 | 19 | 7.0 | 14.8 | 0.00 | 0.00 | 0.00 | 44 | 1014.9 |
| 20260503174225 | 66 | 53 | 8.7 | 14.8 | 0.00 | 0.00 | 0.00 | 44 | 1015.1 |
| 20260503174024 | 66 | 60 | 6.1 | 14.8 | 0.00 | 0.00 | 0.00 | 43 | 1015.3 |
| 20260503173825 | 65 | 94 | 7.8 | 14.8 | 0.00 | 0.00 | 0.00 | 45 | 1015.1 |
| 20260503173603 | 66 | 135 | 5.2 | 11.3 | 0.00 | 0.00 | 0.00 | 43 | 1015.3 |
| 20260503173404 | 66 | 220 | 2.6 | 8.7 | 0.00 | 0.00 | 0.00 | 43 | 1015.4 |
| 20260503173204 | 66 | 305 | 1.7 | 9.6 | 0.00 | 0.00 | 0.00 | 42 | 1015.5 |
| 20260503173003 | 66 | 56 | 3.5 | 9.6 | 0.00 | 0.00 | 0.00 | 42 | 1015.5 |
| 20260503172803 | 66 | 329 | 4.3 | 9.6 | 0.00 | 0.00 | 0.00 | 43 | 1015.6 |
| 20260503172603 | 65 | 17 | 5.2 | 9.6 | 0.00 | 0.00 | 0.00 | 46 | 1015.6 |
| 20260503172404 | 65 | 3 | 5.2 | 10.4 | 0.00 | 0.00 | 0.00 | 44 | 1015.5 |
| 20260503172203 | 65 | 356 | 4.3 | 12.2 | 0.00 | 0.00 | 0.00 | 43 | 1015.6 |
| 20260503172004 | 65 | 3 | 4.3 | 12.2 | 0.00 | 0.00 | 0.00 | 43 | 1015.6 |
| 20260503171803 | 65 | 22 | 2.6 | 12.2 | 0.00 | 0.00 | 0.00 | 44 | 1015.7 |
| 20260503171603 | 65 | 20 | 6.1 | 12.2 | 0.00 | 0.00 | 0.00 | 42 | 1015.7 |
| 20260503171403 | 65 | 27 | 7.8 | 12.2 | 0.00 | 0.00 | 0.00 | 44 | 1015.7 |
| 20260503171204 | 65 | 63 | 3.5 | 11.3 | 0.00 | 0.00 | 0.00 | 44 | 1015.8 |
| 20260503171003 | 65 | 56 | 6.1 | 11.3 | 0.00 | 0.00 | 0.00 | 44 | 1015.8 |
| 20260503170804 | 65 | 14 | 5.2 | 10.4 | 0.00 | 0.00 | 0.00 | 44 | 1015.8 |
| 20260503170603 | 65 | 18 | 3.5 | 8.7 | 0.00 | 0.00 | 0.00 | 45 | 1015.9 |
| 20260503170404 | 65 | 349 | 2.6 | 8.7 | 0.00 | 0.00 | 0.00 | 43 | 1015.9 |
| 20260503170203 | 65 | 351 | 3.5 | 8.7 | 0.00 | 0.00 | 0.00 | 44 | 1015.9 |
| 20260503160206 | 63 | 93 | 4.3 | 8.7 | 0.00 | 0.00 | 0.00 | 45 | 1016.3 |
| 20260503151003 | 60 | 99 | 1.7 | 6.1 | 0.00 | 0.00 | 0.00 | 50 | 1016.7 |
| 20260503150804 | 59 | 181 | 1.7 | 6.1 | 0.00 | 0.00 | 0.00 | 48 | 1016.7 |
| 20260503150603 | 59 | 165 | 0.9 | 6.1 | 0.00 | 0.00 | 0.00 | 48 | 1016.6 |
| 20260503150404 | 59 | 150 | 1.7 | 6.1 | 0.00 | 0.00 | 0.00 | 49 | 1016.7 |
| 20260503150204 | 59 | 120 | 3.5 | 6.1 | 0.00 | 0.00 | 0.00 | 47 | 1016.7 |
| 20260503140203 | 54 | 167 | 1.7 | 4.3 | 0.00 | 0.00 | 0.00 | 56 | 1017.2 |